Theta_e
349 349 350 350 350 350 351 352 355 356 354 352 354 353 352 353 352 352 352 353 353 354 353 354 352 351 350 347 346 345 347 348 349 350 350 351 353 359 363 362 361 361 360 359 360 358 358 357 356 356 356 356 357 357 357 357 358 358 359 360 360 360 360 361 361 361 361 361 361 361 362 361 361 361 362 362 362 362 363 363 362 363 362 362 362
349 349 350 349 350 349 349 353 356 356 354 351 353 355 354 352 350 349 350 348 349 350 356 355 354 350 346 343 346 346 347 347 348 349 350 351 352 357 364 363 361 361 361 360 360 360 359 359 359 358 359 359 359 359 360 359 360 361 361 360 361 362 362 362 362 362 362 362 362 362 362 362 362 362 362 362 363 363 363 364 364 363 363 360 360
349 349 349 349 348 347 348 352 352 351 352 352 354 354 354 353 350 349 349 349 349 349 350 349 349 347 343 342 344 345 347 347 348 349 350 351 351 354 360 364 363 361 361 360 361 360 361 361 361 361 361 360 361 360 360 360 361 361 362 362 362 363 363 364 364 364 364 363 363 363 363 363 363 363 363 364 365 364 364 364 363 362 359 357 356
351 350 349 349 348 347 348 349 350 349 354 353 352 355 354 352 352 351 351 351 350 349 350 349 347 343 340 341 343 344 346 347 347 348 349 350 350 352 356 360 364 362 362 362 361 361 361 361 361 362 361 362 362 362 362 362 362 362 363 365 365 365 366 366 365 365 364 364 364 364 363 363 364 364 364 365 364 364 363 362 360 358 356 356 354
352 352 353 348 349 347 347 349 349 350 353 354 354 351 352 350 350 353 351 350 350 350 353 351 345 340 340 341 342 342 345 346 347 348 348 348 349 351 353 357 357 363 363 362 363 362 362 362 362 362 362 362 362 363 364 364 364 365 365 366 367 367 368 367 366 366 366 366 365 364 364 364 364 363 364 364 364 363 361 358 356 356 355 355 354
352 350 350 349 350 349 347 349 351 353 353 353 348 349 351 351 351 350 353 357 354 353 351 346 342 341 340 341 341 342 343 345 348 348 347 347 348 349 352 354 355 356 359 364 363 364 364 364 364 364 364 364 365 365 365 366 366 366 366 367 367 368 368 367 367 367 367 366 365 365 365 365 364 364 364 363 363 361 359 357 355 354 354 355 355
351 350 348 349 348 349 349 349 349 351 353 353 353 355 349 348 349 348 348 352 355 358 355 346 341 340 340 342 340 342 343 344 346 347 345 344 346 347 349 351 352 352 356 355 364 364 365 365 365 365 365 365 365 365 366 366 367 367 367 367 368 368 368 368 368 367 367 366 366 366 366 365 364 363 362 362 360 359 358 356 355 354 354 355 356
352 350 348 348 348 346 347 349 349 350 352 350 352 351 348 349 350 349 348 353 359 356 353 348 347 344 342 343 340 346 341 341 343 346 345 346 346 345 347 348 349 349 358 352 352 356 363 366 367 367 367 367 367 367 367 367 367 368 368 368 368 368 368 368 368 368 367 367 367 366 366 365 364 364 363 361 360 359 358 356 355 354 355 355 356
350 350 349 349 348 347 350 350 351 351 350 348 348 353 350 351 350 354 355 353 356 356 355 353 349 346 339 339 341 347 339 339 343 345 348 347 346 346 347 348 350 359 354 352 350 350 356 363 366 368 369 369 369 369 368 369 367 367 368 368 368 368 368 368 369 368 368 368 368 367 367 365 364 363 362 362 360 360 358 357 356 355 354 355 356
350 350 348 349 348 349 350 349 350 349 348 348 347 349 350 351 350 354 360 356 353 352 353 353 353 348 343 336 339 337 336 339 342 352 347 348 348 349 349 349 351 351 353 353 351 349 350 356 363 368 370 369 369 370 369 369 368 367 366 367 368 368 368 369 369 369 368 368 369 369 368 366 365 364 363 363 362 361 360 358 357 356 355 355 356
351 350 348 350 347 348 348 348 350 349 349 349 350 355 359 356 355 355 355 354 354 354 354 354 355 349 342 335 344 338 338 338 345 344 346 348 349 352 353 351 351 351 352 354 352 351 350 351 351 354 358 366 369 372 371 370 369 367 368 368 367 368 370 370 369 369 369 369 369 369 369 367 365 364 364 364 363 362 361 360 358 357 356 355 355
349 349 349 349 346 348 348 350 350 350 351 352 350 350 354 353 354 357 354 353 355 354 354 352 349 339 342 338 340 339 338 344 340 340 343 342 347 350 349 349 350 352 354 355 353 353 352 352 356 351 353 357 365 371 371 370 367 368 368 368 369 370 370 369 370 370 370 369 369 369 369 368 366 366 364 364 364 363 361 361 360 359 358 357 356
352 350 348 352 349 350 350 350 352 356 355 352 353 356 358 355 355 353 356 351 349 352 351 349 341 333 334 334 336 341 354 342 338 339 341 340 342 346 344 346 345 350 354 355 353 354 354 353 352 352 352 353 357 368 371 370 368 368 368 369 370 371 371 371 371 371 371 370 369 370 369 368 367 367 366 365 365 364 364 362 361 361 360 359 358
353 352 353 352 353 354 355 356 357 354 353 357 357 363 355 353 354 350 352 352 349 353 352 340 336 328 328 330 332 334 344 346 341 340 340 340 340 343 341 343 344 346 350 351 351 353 354 352 354 353 352 354 356 356 361 366 369 370 370 370 371 371 371 373 372 372 373 372 371 370 370 369 368 368 367 367 366 366 365 364 363 362 362 361 360
351 356 356 357 356 357 358 357 356 359 350 349 350 351 353 353 352 350 352 352 354 355 350 341 336 339 336 331 327 329 334 336 340 342 337 339 340 340 343 343 344 345 347 348 347 347 348 347 353 354 354 356 355 354 357 364 362 367 369 369 370 372 373 373 373 372 373 373 372 370 370 369 369 369 369 366 365 365 365 364 363 362 362 361 361
354 357 359 358 356 356 357 357 358 356 351 350 350 351 352 352 352 355 354 347 348 347 357 349 342 334 328 329 327 328 325 328 332 337 337 336 339 340 344 341 341 343 349 346 345 344 342 343 348 354 356 357 355 354 356 356 361 368 370 371 368 367 371 374 374 373 373 373 372 371 370 369 369 369 369 367 367 366 365 364 363 363 362 362 363
358 359 361 357 356 356 356 357 356 356 356 354 354 354 355 354 353 354 352 349 348 349 349 352 347 342 337 334 329 327 326 328 334 331 336 333 337 339 344 338 337 343 345 343 343 341 339 341 348 354 356 356 355 355 357 358 358 364 365 370 371 368 367 371 374 375 374 373 372 371 370 369 368 368 369 369 368 367 366 365 364 364 363 363 363
358 359 361 359 357 357 356 357 355 356 357 355 356 356 353 352 352 354 355 355 351 344 345 350 352 355 348 337 332 328 328 334 329 325 334 341 335 338 340 339 338 343 342 340 340 340 348 342 346 347 352 353 355 357 358 358 363 359 360 361 370 370 368 365 366 370 372 373 372 371 371 369 369 369 369 369 369 367 367 365 365 364 364 364 364
358 358 359 359 356 356 356 356 356 355 360 357 355 354 356 355 359 356 356 359 352 343 344 345 344 346 350 350 351 348 339 331 325 331 327 330 334 335 336 337 338 340 341 340 340 340 341 346 344 343 346 349 349 355 358 358 362 362 364 366 365 367 367 364 363 367 370 371 369 369 369 369 368 368 367 367 368 367 366 366 365 365 365 365 365
357 356 357 359 356 355 355 355 355 356 361 359 355 356 356 356 362 361 359 359 357 349 346 346 340 342 350 346 350 352 347 347 338 328 326 325 327 333 333 337 338 338 340 340 340 339 337 341 345 342 343 346 347 349 352 354 355 357 360 364 366 367 366 365 365 366 368 370 369 367 367 367 367 367 365 366 367 367 366 366 366 365 366 366 365
357 357 356 356 359 355 355 354 355 355 361 360 359 359 357 356 358 357 354 356 355 358 347 346 342 341 344 345 346 348 343 345 344 340 335 326 327 328 330 335 338 335 334 338 338 338 339 340 344 347 346 348 348 348 351 354 355 354 358 362 367 370 370 367 366 368 368 368 371 369 367 367 368 369 369 368 367 367 366 365 366 367 367 367 366
355 357 356 356 357 357 357 357 358 357 363 360 358 357 357 355 358 359 357 357 355 354 355 349 351 346 347 346 342 343 339 340 336 338 337 330 325 328 331 330 330 332 343 340 335 337 338 340 344 347 344 344 346 350 352 353 355 358 359 365 368 370 371 369 369 369 369 369 369 369 369 368 369 369 368 368 367 367 366 365 366 366 366 366 364
355 357 358 357 358 360 360 358 358 361 361 357 355 357 359 358 358 360 359 356 359 355 353 354 352 348 346 345 343 344 340 337 335 338 335 333 330 331 333 333 331 332 337 340 347 337 336 338 341 342 343 343 346 349 351 353 358 362 362 362 363 366 367 368 367 367 365 365 367 368 369 369 369 368 368 367 367 366 365 364 364 364 365 365 363
354 356 356 360 358 359 362 360 359 357 357 358 358 357 358 357 357 357 355 356 356 357 353 352 352 345 344 346 343 346 344 340 342 341 337 337 334 333 335 337 337 334 336 342 343 338 336 337 339 341 342 342 345 350 351 353 355 364 364 362 361 363 364 366 367 366 365 363 362 364 365 366 367 367 368 367 369 367 364 364 364 365 365 365 363
352 356 356 360 360 358 358 357 357 358 357 356 358 357 356 358 358 356 355 356 355 357 352 349 351 347 346 348 343 344 342 344 346 345 345 342 339 334 339 341 337 338 338 345 341 342 342 341 341 341 342 344 350 352 353 356 354 357 361 357 357 360 362 363 365 364 362 362 362 364 366 366 365 364 363 363 363 363 363 365 364 364 365 365 364
352 354 357 360 361 360 361 358 358 358 358 356 358 358 358 358 359 356 357 356 358 357 351 355 354 353 352 344 346 340 344 345 344 344 344 341 338 337 339 338 340 340 340 342 343 340 340 343 346 347 348 350 352 353 354 352 350 357 360 357 354 356 359 359 363 363 363 362 361 363 364 365 365 365 364 363 363 363 363 364 363 364 365 365 365
353 354 358 358 358 360 359 357 357 358 360 359 360 360 360 360 363 359 358 360 358 358 352 352 353 352 350 348 352 339 343 344 347 349 347 345 342 343 338 334 332 336 341 340 343 342 341 342 346 350 354 360 355 355 354 354 357 360 362 356 352 355 355 357 358 360 361 361 361 362 363 364 364 365 365 365 363 365 368 366 365 363 363 363 362
354 355 356 356 356 358 359 358 357 358 359 359 359 359 359 359 357 360 357 366 358 357 352 351 352 354 351 350 345 342 346 347 348 349 348 350 352 350 342 335 332 331 333 335 337 340 346 344 345 350 353 353 355 354 358 355 350 358 360 353 352 352 354 355 354 355 354 353 353 355 356 360 361 361 362 363 362 362 364 367 368 366 362 361 361
355 356 355 355 356 357 356 357 358 358 358 359 358 358 358 357 357 357 358 358 357 355 353 353 354 353 351 351 349 346 348 351 347 350 350 351 349 347 347 343 337 333 331 332 330 336 341 348 345 344 352 352 352 353 351 349 353 357 354 353 352 352 352 350 352 350 349 349 350 351 353 356 357 358 361 362 362 362 363 363 363 362 361 359 361
356 357 355 355 355 362 356 356 358 358 358 359 358 358 355 356 357 357 358 357 357 359 362 357 356 354 356 354 352 349 354 350 351 349 349 348 348 349 348 349 342 337 335 331 330 336 340 345 346 346 349 352 353 354 354 350 357 355 353 352 353 353 348 349 350 349 348 347 347 348 351 353 354 355 355 355 355 355 356 358 360 361 361 361 362
356 356 354 354 354 356 355 355 356 358 356 356 358 356 355 353 355 358 356 358 357 356 357 358 357 354 352 353 354 354 353 350 351 353 355 354 351 349 345 352 346 342 341 335 331 335 346 341 345 351 351 351 354 353 353 355 358 357 355 353 352 353 352 353 350 348 347 345 345 346 346 347 349 348 348 349 351 352 355 357 358 358 359 359 361
356 355 354 355 355 355 353 356 356 357 357 356 356 355 356 355 355 359 357 356 354 353 354 356 359 357 353 353 355 353 353 354 353 354 351 351 351 347 345 347 348 348 345 339 335 336 343 347 347 349 353 352 355 353 353 356 359 359 356 355 354 356 354 352 351 348 347 347 346 344 343 343 343 344 346 348 349 352 354 355 355 355 355 356 356
355 354 354 355 356 355 353 356 355 356 356 356 355 354 356 354 354 356 356 355 354 352 354 353 354 355 356 354 355 356 357 352 351 351 350 348 347 348 346 343 343 350 345 340 337 339 342 348 351 351 354 356 354 354 354 355 356 357 358 356 355 353 352 350 352 350 349 347 344 341 341 342 341 341 344 347 349 350 352 352 350 349 349 348 347
355 355 353 353 356 354 354 354 354 355 356 355 356 355 356 353 353 357 357 356 354 353 354 352 355 359 356 353 355 355 357 355 353 352 350 349 348 345 345 347 344 345 348 344 340 339 337 343 347 351 352 357 353 355 354 355 355 358 357 356 355 353 354 353 353 354 350 347 342 340 342 342 341 340 343 346 349 349 349 347 344 342 342 341 338
355 355 354 353 355 353 352 351 351 351 354 354 355 354 355 354 352 353 356 356 357 357 356 355 354 354 354 354 355 356 359 354 353 353 353 351 350 348 349 349 346 348 350 346 344 341 341 342 347 350 351 353 353 354 356 356 357 357 355 354 354 356 356 355 355 356 350 345 343 343 343 342 340 341 342 344 346 345 344 341 338 336 336 335 333
353 356 355 354 354 353 351 351 350 350 352 354 354 355 354 354 354 353 352 354 356 358 358 357 357 354 352 350 352 353 354 352 351 352 353 352 351 348 351 351 349 349 351 352 349 345 344 343 344 349 351 351 353 354 355 356 356 355 354 354 353 354 356 357 356 355 353 346 346 345 344 342 341 341 341 342 341 338 337 336 336 336 335 334 334
353 355 355 354 353 353 352 351 350 351 353 354 355 355 355 355 355 355 354 354 356 358 359 357 363 356 354 353 353 353 352 350 351 351 351 350 349 350 350 351 353 356 356 354 353 351 347 345 347 348 350 350 352 353 354 352 351 351 350 349 351 353 354 356 357 358 352 349 349 347 345 344 344 342 342 341 340 338 337 337 336 335 334 334 333
351 354 355 354 354 353 353 353 352 355 356 355 355 356 357 357 357 357 357 356 356 356 357 358 359 360 357 356 357 356 355 353 352 351 350 350 353 355 352 352 354 357 353 354 353 350 348 347 345 347 345 349 347 347 350 350 349 348 348 351 351 351 352 353 355 357 359 359 358 358 351 348 346 342 343 340 338 339 339 338 336 336 335 332 328
352 353 354 353 356 355 353 356 357 358 357 358 357 356 356 357 359 358 357 357 357 358 357 358 357 356 355 354 354 354 354 353 352 350 350 350 353 351 352 352 354 353 352 351 351 348 346 346 345 345 346 347 347 345 347 348 346 348 346 347 347 349 351 352 352 355 357 358 355 353 352 350 347 349 339 338 340 340 341 340 338 338 338 333 328
352 353 353 352 356 356 354 357 358 360 359 358 358 358 357 356 357 356 355 355 355 356 355 354 354 353 353 353 352 352 354 355 352 351 350 349 353 353 354 355 356 351 349 349 349 347 346 345 343 343 342 341 343 343 346 343 341 341 347 346 344 347 350 350 350 352 354 356 356 356 353 352 351 350 344 345 345 343 343 343 345 343 341 334 331
352 352 352 353 353 355 355 356 357 359 359 359 359 359 357 356 357 356 355 355 355 354 354 354 354 354 354 354 353 350 355 365 367 364 359 358 354 350 352 354 354 352 350 348 347 345 342 341 342 341 340 340 341 339 341 341 340 342 344 347 345 349 350 349 350 352 354 354 354 354 354 355 354 355 355 354 355 354 350 346 347 348 342 333 332
351 351 350 352 353 354 354 355 356 359 360 361 366 368 367 359 358 358 357 355 354 354 354 353 354 354 354 354 356 365 364 364 367 369 369 365 365 356 352 353 352 348 347 344 342 342 341 340 340 339 341 341 341 341 342 343 344 347 348 348 346 348 348 347 347 348 354 354 352 350 352 355 354 353 353 352 355 355 354 353 352 345 339 334 332
350 351 350 349 352 354 355 355 354 356 355 347 340 335 343 351 363 357 357 355 354 354 354 352 351 352 353 355 357 368 365 366 363 373 369 367 365 360 363 366 363 350 347 344 343 343 342 342 341 340 339 339 342 344 345 348 349 347 346 347 347 347 344 343 342 347 352 354 350 347 348 352 353 349 350 351 352 353 353 353 343 340 335 334 333
349 350 349 348 348 351 354 354 352 345 341 337 330 334 337 340 351 358 358 358 356 353 353 352 351 352 352 350 356 359 360 358 353 353 363 367 363 363 360 359 360 362 358 349 347 343 341 340 339 340 340 342 343 345 349 349 347 346 346 346 343 343 344 342 342 342 350 355 348 345 346 349 352 349 347 349 350 352 353 343 340 338 335 334 334
349 348 348 348 348 348 348 345 343 340 336 329 328 331 332 332 338 355 352 350 348 350 351 349 349 349 351 349 346 344 344 355 351 348 348 353 364 364 363 363 362 358 345 342 346 350 345 342 342 341 342 343 343 346 353 350 347 344 343 343 343 344 343 342 343 345 350 354 349 345 344 347 348 346 345 347 348 350 352 345 340 338 337 336 335
344 345 346 346 346 345 344 343 339 336 332 327 324 326 328 330 334 345 351 348 346 351 354 354 355 352 349 346 342 338 336 336 336 339 344 348 349 352 352 353 353 356 353 346 342 341 348 348 343 342 344 348 346 347 353 350 346 345 343 343 343 343 344 344 347 348 351 354 348 344 340 342 346 345 343 345 347 348 350 342 335 336 337 335 334
345 346 346 345 344 344 342 339 336 332 329 320 320 323 324 327 330 347 351 350 355 354 352 351 350 349 344 341 337 335 334 334 334 334 340 342 348 351 350 351 352 351 351 352 352 352 352 352 347 347 349 351 350 349 348 346 345 346 347 346 346 346 347 348 346 346 347 351 348 343 336 340 344 343 343 345 346 346 348 341 336 335 334 332 333
345 347 347 346 342 338 337 335 332 327 323 317 317 319 320 324 330 351 350 353 351 348 347 345 345 344 341 337 336 334 334 333 330 328 333 342 347 347 347 348 350 350 349 356 338 344 350 345 345 348 350 348 341 347 347 344 346 347 350 349 347 345 343 338 338 341 340 344 349 343 337 338 342 341 342 346 345 342 345 348 336 336 333 332 334
343 344 344 342 339 336 336 332 329 325 324 318 314 314 316 320 330 350 352 350 347 346 344 344 343 342 340 338 336 334 333 332 327 320 325 347 343 343 342 342 345 342 340 342 340 339 336 332 331 331 333 331 331 328 329 332 340 348 346 341 341 344 339 336 337 337 338 341 346 345 339 336 340 340 341 343 343 340 343 342 341 335 331 331 331
342 341 338 335 335 335 332 329 328 325 324 321 312 311 313 318 335 353 351 348 345 344 343 343 344 344 345 348 341 333 332 330 320 318 324 341 339 339 339 341 340 336 336 338 342 345 339 339 340 336 334 333 334 335 338 340 341 347 344 339 343 340 338 337 334 337 338 338 343 345 337 334 340 342 341 341 339 337 341 339 339 335 333 331 330
340 338 337 332 331 331 331 331 334 325 324 323 313 310 311 314 331 353 351 348 345 342 340 338 338 338 339 343 342 336 332 325 315 317 322 338 337 338 337 338 335 333 333 333 335 341 343 345 345 350 350 353 349 347 349 348 344 343 338 342 343 340 336 335 335 333 328 332 336 339 335 335 340 342 339 334 327 332 338 335 334 333 335 336 337
Wind_Speed
4 4 3 3 3 2 1 1 1 1 1 1 1 1 2 1 2 3 3 4 4 5 4 5 4 4 4 3 4 5 4 4 4 4 4 4 5 7 12 11 10 9 8 7 8 7 6 6 6 6 6 7 7 6 6 5 5 5 5 6 6 6 6 6 6 6 7 7 7 8 9 9 9 9 9 9 10 10 12 12 12 10 8 7 6
4 3 4 3 3 2 1 1 2 1 1 2 1 1 1 1 2 2 2 3 4 5 4 5 5 5 5 4 7 6 5 5 5 4 4 4 4 5 12 11 11 9 9 8 8 7 7 7 7 7 7 8 7 7 7 6 6 6 6 7 7 7 7 7 7 7 7 7 7 8 8 8 8 8 9 9 11 11 10 9 9 8 9 9 9
4 3 3 3 2 2 1 1 1 1 1 2 2 2 2 3 2 2 3 3 5 5 4 5 6 6 4 5 6 5 5 4 4 4 4 5 4 5 6 12 11 10 10 9 8 8 8 7 8 8 8 9 9 8 7 7 7 7 7 7 7 7 7 8 8 8 7 7 7 8 8 8 8 8 9 10 8 7 7 7 7 6 6 6 7
3 2 2 3 3 2 1 1 0 1 1 2 2 2 3 2 2 2 3 4 5 5 4 5 6 6 3 4 4 5 5 5 5 5 4 4 5 5 5 5 11 11 10 9 9 9 8 8 9 9 9 9 9 9 8 8 7 7 7 7 7 8 8 8 8 8 8 8 8 7 7 8 8 8 8 6 6 6 5 6 6 6 5 6 6
4 4 3 3 3 2 2 1 1 2 2 2 2 2 3 3 3 2 4 3 4 6 5 5 5 6 4 3 6 5 5 5 5 5 5 4 5 5 5 5 4 9 10 9 9 9 9 9 9 9 9 9 9 9 9 9 8 8 8 8 8 9 9 10 9 9 9 8 8 7 7 8 8 8 6 6 6 5 6 6 7 6 5 6 7
4 3 3 3 3 3 2 1 1 2 2 2 1 2 3 3 3 3 4 3 5 5 5 4 5 6 4 4 4 6 6 6 5 6 5 5 5 5 5 4 4 4 4 8 10 9 10 9 10 9 9 9 9 9 9 9 9 8 8 8 8 9 9 10 9 9 8 8 7 7 7 8 8 6 6 7 6 6 6 6 6 6 6 7 8
3 4 2 3 3 3 2 2 2 2 2 2 2 3 2 3 3 4 5 5 4 4 3 1 4 5 6 6 5 5 5 6 5 5 5 4 4 5 5 5 4 3 4 4 6 9 10 10 10 10 9 9 9 8 8 8 9 9 8 8 8 8 8 9 9 8 8 7 7 7 7 7 6 6 7 7 6 6 6 6 7 7 7 8 9
4 3 3 3 4 2 1 1 2 1 2 1 2 4 3 4 3 2 4 6 4 4 2 3 2 2 3 5 6 6 5 5 6 6 5 4 5 4 4 4 4 4 4 4 4 4 8 9 10 10 9 9 8 8 8 8 8 8 8 8 7 7 7 7 7 7 7 7 7 7 7 6 5 5 6 6 7 6 6 6 7 7 7 8 9
4 3 4 3 3 3 1 3 2 2 1 1 2 2 2 3 5 3 3 4 5 4 3 3 4 3 2 3 5 5 6 6 7 6 5 5 5 4 4 5 4 5 4 4 4 5 6 8 9 10 9 8 8 7 7 7 8 8 8 8 7 6 6 6 6 6 6 7 7 8 7 6 6 5 6 6 7 7 7 7 7 7 7 8 8
3 3 3 3 2 3 3 2 1 1 2 1 2 2 2 2 5 5 3 3 4 3 4 4 4 5 3 1 3 6 7 7 6 5 6 6 5 5 6 5 4 5 5 4 5 5 5 6 9 9 9 8 7 7 7 7 7 8 8 7 7 6 5 5 6 6 6 7 7 8 8 6 7 6 6 7 7 8 8 8 7 7 7 8 8
3 3 4 3 3 3 2 2 1 2 1 1 2 2 2 1 3 4 4 4 4 3 2 3 4 4 4 2 1 4 6 6 6 6 6 7 7 7 5 5 5 4 5 5 4 4 5 4 4 4 5 7 8 7 7 6 7 8 9 9 8 7 7 6 6 6 7 7 7 8 8 8 7 7 7 7 8 9 9 9 8 8 8 8 8
3 2 2 3 3 2 2 2 2 2 2 2 2 1 0 2 3 3 5 5 3 2 1 3 3 3 3 1 2 3 4 4 5 6 6 5 6 5 6 4 4 4 5 5 4 4 5 4 4 4 4 5 7 7 7 6 7 8 9 9 9 9 8 8 8 7 7 7 7 8 8 9 9 8 8 9 9 10 10 9 9 9 9 8 8
3 3 4 4 3 3 3 3 4 4 3 3 1 0 0 0 2 1 2 4 3 2 1 2 1 2 2 1 1 1 1 3 4 4 5 5 4 5 4 4 5 5 5 5 4 5 5 5 4 4 5 5 5 6 7 7 7 9 10 10 10 10 9 9 9 9 9 8 8 8 8 9 10 10 9 9 10 11 10 10 9 9 9 9 8
5 4 4 5 5 5 5 6 5 4 2 1 1 0 1 1 1 3 0 1 2 3 2 1 1 2 3 0 4 4 1 0 2 3 4 3 3 3 3 5 5 5 4 4 5 5 5 5 4 5 5 5 4 3 4 5 7 10 11 11 11 11 11 10 10 10 10 10 9 8 9 9 9 11 10 10 10 10 10 10 9 9 9 9 9
5 4 4 4 5 5 4 4 2 1 2 0 1 0 1 1 2 2 5 2 3 3 3 1 1 1 2 3 1 0 3 3 2 2 2 4 2 3 4 4 5 5 5 5 5 5 4 4 5 5 5 4 4 4 5 5 6 9 10 11 11 12 12 12 11 11 11 12 11 10 10 9 10 11 11 11 11 11 11 11 10 10 9 9 9
6 6 4 4 4 4 3 3 3 2 2 1 1 1 2 3 3 2 1 4 3 3 1 2 3 5 1 1 2 3 1 4 3 4 3 5 5 4 3 4 4 4 2 5 6 5 4 4 4 4 4 4 4 5 5 5 8 10 11 11 11 12 12 13 12 12 12 12 12 11 11 10 10 11 11 12 11 11 12 12 11 11 10 10 9
6 5 5 6 4 3 3 3 3 2 1 0 1 2 2 3 1 1 1 0 5 2 3 3 2 1 3 2 1 1 2 4 0 4 2 3 4 5 3 3 3 4 5 5 3 4 5 3 3 3 3 4 4 5 6 5 5 5 7 10 12 12 12 13 13 13 13 12 12 12 12 12 11 12 12 12 12 12 12 12 12 12 12 11 10
3 3 4 5 4 3 2 3 2 2 1 1 1 2 3 2 2 0 2 1 1 3 3 2 1 1 1 2 4 2 2 2 2 3 2 2 3 5 4 5 3 4 3 3 3 5 3 3 3 4 4 5 5 5 6 6 5 5 5 7 11 12 13 14 13 13 13 13 12 12 13 13 12 13 13 12 12 12 12 12 12 12 12 12 11
3 3 3 3 3 3 3 2 2 1 1 0 1 2 3 2 1 1 2 2 0 3 3 4 3 1 3 1 0 1 2 3 3 1 1 2 1 2 4 3 4 4 4 3 3 3 4 3 4 5 4 4 5 5 5 6 6 7 8 10 11 12 13 14 14 13 13 13 12 12 13 13 13 13 13 13 13 12 12 12 12 12 12 12 11
3 3 3 2 2 2 3 2 2 2 1 1 2 2 2 2 2 1 2 1 1 1 2 3 4 3 3 4 3 1 2 1 2 5 5 4 1 2 2 1 2 4 4 4 4 5 5 4 4 4 5 4 4 4 5 5 5 6 6 11 13 13 13 13 13 14 13 12 13 13 13 13 13 13 13 13 12 11 11 11 12 12 12 12 11
3 3 3 3 2 3 3 2 2 3 2 2 2 2 2 3 3 3 3 4 2 1 1 3 4 3 5 4 4 4 2 2 2 4 2 3 0 2 2 2 1 4 4 1 3 4 5 6 5 4 4 5 5 5 5 5 5 5 6 11 13 13 13 13 13 14 14 13 12 13 13 13 13 13 13 12 11 10 10 11 11 11 12 12 11
2 3 3 3 3 2 3 3 3 3 2 2 2 3 3 3 3 3 2 3 3 2 2 2 2 0 2 1 5 4 4 4 3 3 4 3 5 2 1 3 4 5 1 2 5 7 7 5 4 5 5 6 5 4 5 6 5 4 6 10 11 11 11 12 13 13 13 13 13 13 13 13 13 13 13 12 11 10 10 11 11 11 11 11 11
3 3 3 3 3 3 3 3 2 2 3 2 3 3 3 3 3 3 3 3 4 4 4 3 3 3 4 4 4 2 1 1 2 1 3 3 4 3 1 1 3 1 1 3 4 5 5 4 6 6 6 6 5 4 5 6 4 5 8 9 9 9 10 11 12 12 13 13 13 13 13 13 13 14 13 12 11 10 10 11 10 11 10 11 11
3 3 3 3 3 3 3 3 3 3 4 3 3 3 3 3 3 3 3 3 2 3 3 4 5 4 4 3 3 1 1 1 1 2 3 3 5 2 1 1 1 1 3 2 3 4 3 6 7 7 8 6 4 3 6 6 5 8 6 9 10 9 10 11 11 11 12 12 13 13 13 13 13 14 13 12 9 10 11 11 10 10 11 11 11
4 5 4 4 4 4 4 4 4 4 4 3 3 3 2 3 3 3 2 3 3 2 3 3 3 3 4 3 2 3 4 2 1 3 3 5 5 3 0 1 1 2 2 2 1 2 2 3 4 5 5 5 4 5 5 5 5 7 8 7 11 10 10 11 12 11 11 12 13 13 13 13 13 13 13 13 12 11 11 11 11 10 9 10 11
5 6 5 5 4 5 5 5 4 4 3 4 3 3 3 3 3 3 2 3 2 2 2 3 3 4 1 3 2 3 3 3 3 4 3 4 3 2 0 2 1 1 2 3 2 3 3 2 2 1 1 1 3 4 5 6 7 9 10 7 8 10 10 11 11 11 11 12 13 13 13 13 13 13 13 13 12 12 12 13 12 10 10 11 11
6 5 4 5 5 4 5 4 4 4 4 3 4 3 3 2 1 2 2 3 2 2 3 2 4 5 5 3 3 1 2 3 2 3 2 3 3 3 3 2 4 4 4 2 4 1 1 2 2 3 3 3 3 4 5 5 7 11 10 6 5 9 10 11 11 11 11 11 12 13 13 12 13 14 13 14 13 12 11 14 13 11 11 10 11
5 5 5 5 5 5 4 5 4 4 3 3 4 3 3 3 2 2 3 2 3 3 3 2 4 3 3 3 4 3 3 3 3 1 1 4 4 4 5 4 3 2 4 3 3 2 1 2 2 0 1 2 3 3 5 6 6 10 9 4 5 5 9 10 10 10 11 12 12 11 10 10 12 13 13 14 14 13 12 12 12 12 12 11 11
5 5 5 5 5 5 5 5 4 4 4 3 3 3 3 3 3 3 3 3 1 3 3 3 3 2 3 4 3 2 2 1 1 2 2 3 1 4 3 3 4 1 0 2 2 1 2 0 0 3 2 4 5 5 5 5 6 7 5 5 5 4 7 9 9 10 10 10 12 12 10 9 10 11 12 13 13 13 12 13 13 14 14 13 11
6 5 5 5 5 6 5 4 4 4 4 4 3 3 3 3 2 3 3 3 3 3 3 2 3 3 3 4 3 1 1 3 3 2 2 1 1 1 1 3 5 3 4 1 3 3 3 2 2 1 3 4 4 4 3 4 7 7 4 4 5 4 8 9 8 9 9 10 11 10 9 9 9 10 11 12 12 12 12 13 14 15 14 15 13
6 5 5 6 6 6 5 5 4 4 4 4 3 3 3 3 3 4 3 3 3 3 3 1 2 2 4 4 2 2 2 3 3 4 3 3 4 2 0 1 3 3 4 3 0 3 3 2 3 3 2 3 4 3 4 4 6 6 5 5 4 8 9 6 9 9 10 9 9 10 10 10 10 11 11 11 12 12 12 13 14 15 14 15 13
6 6 6 6 6 6 5 5 6 5 4 4 3 3 3 4 4 4 3 3 3 3 3 2 1 2 2 3 2 2 1 2 3 3 3 3 3 4 2 2 1 0 2 3 3 6 2 3 3 5 5 3 5 4 5 6 6 7 4 6 6 8 5 4 6 10 11 13 12 13 12 12 11 11 11 10 11 11 12 13 13 14 14 15 15
7 6 6 6 7 7 6 5 6 5 5 5 4 3 4 4 4 3 3 3 4 3 3 3 2 2 2 2 3 3 0 2 2 3 3 2 1 3 3 2 2 3 4 3 3 5 4 3 3 3 4 3 3 2 5 6 7 7 7 6 5 5 4 4 5 8 10 11 10 10 10 11 11 11 12 12 12 12 12 13 14 14 14 14 15
6 6 6 5 5 7 6 6 6 6 6 6 5 4 4 5 4 4 3 2 3 4 3 4 3 2 1 2 3 3 3 3 3 4 3 3 3 3 4 3 2 4 3 3 4 2 4 4 4 3 4 2 3 4 4 6 7 6 8 7 6 4 4 5 6 6 9 9 9 9 11 12 11 11 12 13 14 14 14 14 14 14 14 14 14
5 6 6 6 6 6 5 5 6 6 6 6 5 5 5 5 6 4 4 3 3 3 3 4 4 3 2 2 3 3 3 3 3 4 4 4 2 1 4 1 1 2 1 3 2 2 3 3 3 2 2 3 2 5 6 5 5 5 6 6 5 5 4 4 5 5 9 11 10 12 12 12 10 11 13 14 15 15 15 15 15 15 15 14 14
6 6 7 7 6 6 6 6 5 5 6 6 6 6 7 6 6 5 4 3 3 3 4 4 4 4 4 4 4 4 3 3 4 4 4 4 4 3 3 2 1 3 2 2 2 2 2 2 2 2 2 3 4 4 4 5 5 7 4 4 4 5 4 5 5 5 7 11 12 12 11 10 10 12 14 14 14 15 15 16 16 16 14 14 15
7 7 6 5 6 6 7 7 6 6 6 7 6 6 6 6 6 6 5 4 4 4 5 5 5 4 4 4 5 4 4 4 4 4 5 4 3 3 3 3 3 2 2 2 3 2 1 2 3 3 2 2 2 4 3 4 6 5 3 3 3 4 5 5 5 6 8 10 10 10 10 10 11 13 14 14 14 15 15 15 14 13 14 16 16
7 7 7 6 6 8 8 7 6 6 6 7 7 6 6 6 6 6 6 5 5 4 4 5 5 4 4 4 4 4 4 4 4 3 2 3 3 2 3 1 0 0 0 0 0 1 1 2 2 4 2 3 3 3 3 3 4 4 6 6 5 5 5 7 6 5 5 5 6 6 7 9 11 13 13 14 14 15 15 14 11 13 15 16 15
8 7 7 7 6 7 8 7 7 7 6 6 6 5 4 4 6 6 6 5 4 4 4 4 4 3 3 3 3 3 5 5 5 5 4 2 2 5 4 3 2 2 2 1 0 1 2 2 2 2 3 3 1 4 4 3 1 0 2 5 5 3 3 4 6 6 5 6 6 6 8 9 11 9 11 13 13 14 14 13 10 14 15 16 16
7 8 8 8 7 6 7 7 7 6 6 5 5 5 4 4 5 5 5 5 4 4 4 3 3 4 4 4 4 4 5 5 6 5 4 4 2 1 3 3 3 3 2 1 1 1 1 1 1 4 2 2 5 2 3 3 5 3 2 1 4 6 6 4 3 6 5 5 6 7 7 7 8 9 10 10 11 11 12 12 11 13 15 15 15
8 8 8 8 7 7 6 7 6 5 6 6 5 5 5 5 5 5 5 4 4 3 3 3 4 4 4 3 3 4 4 7 9 7 6 5 4 4 3 3 3 3 2 1 1 0 1 1 4 2 3 5 4 3 6 3 2 2 3 1 2 4 5 5 6 3 3 5 6 6 7 6 7 7 7 7 7 9 10 11 10 13 15 14 14
6 6 6 7 8 8 7 6 5 6 6 5 4 8 8 6 5 4 4 4 3 3 3 4 4 4 4 4 3 7 8 5 6 7 9 10 9 3 5 4 3 3 2 2 2 2 2 3 4 3 4 5 5 4 3 2 2 2 3 4 5 5 5 5 3 2 3 4 6 6 6 5 6 7 7 7 7 7 7 7 8 9 12 14 13
8 7 7 7 7 7 8 6 5 4 2 2 2 3 2 0 3 4 4 3 3 3 4 4 6 4 2 2 0 3 4 5 3 6 1 4 7 6 5 5 5 4 3 2 3 3 2 2 2 2 3 5 5 3 3 3 2 2 2 3 4 4 4 6 7 5 2 5 4 4 6 5 5 7 7 6 7 8 7 7 12 13 13 13 14
7 6 7 7 6 7 6 8 7 4 4 2 3 3 2 2 1 2 3 3 0 3 4 4 3 3 3 2 2 2 3 3 3 3 4 4 3 4 4 3 4 5 5 3 3 2 2 2 3 3 3 4 4 3 3 2 3 3 2 3 2 3 4 4 4 5 5 3 4 4 6 4 5 6 7 7 7 7 8 11 14 15 14 14 14
4 5 5 4 4 4 6 7 7 4 3 2 2 3 3 3 3 2 3 4 5 5 8 5 2 2 3 3 3 3 3 7 4 3 3 2 4 3 2 2 3 5 5 5 4 2 1 2 3 3 3 2 3 3 1 2 1 3 2 2 2 3 2 4 4 4 6 4 4 4 4 5 5 7 7 7 7 7 8 10 15 16 16 16 16
5 4 4 5 5 5 6 7 6 4 4 1 1 2 3 4 5 4 4 5 3 2 2 2 2 3 3 4 4 3 3 4 4 5 3 3 3 3 4 4 4 6 8 8 7 4 2 2 2 2 2 1 2 2 3 2 2 3 3 3 3 3 3 3 4 4 5 4 4 3 3 6 5 6 7 8 7 7 6 10 14 16 17 18 17
7 7 6 6 4 4 5 6 7 4 2 3 2 3 3 4 4 4 4 2 4 3 2 2 3 4 3 4 4 3 2 3 4 5 2 3 3 3 3 3 4 4 5 4 3 2 0 0 1 2 4 3 3 2 2 2 1 2 2 3 3 2 3 3 3 2 3 3 4 5 5 6 4 6 7 8 8 8 6 7 14 17 18 18 17
3 5 4 4 5 5 4 5 6 5 2 4 4 4 5 5 4 4 7 6 6 5 4 4 4 4 4 4 4 3 2 2 4 6 3 1 2 3 3 3 4 4 4 2 1 3 2 2 2 2 3 3 1 0 1 2 3 3 3 2 2 2 3 4 5 5 5 4 4 7 5 6 4 5 7 7 7 7 7 6 13 16 17 16 16
3 4 5 4 4 5 4 3 4 4 3 5 6 6 6 7 4 4 5 6 6 5 4 4 4 4 4 4 4 4 3 2 5 6 6 1 4 3 2 2 3 3 4 4 5 5 7 9 8 6 3 1 2 2 3 5 5 4 3 4 5 4 5 6 5 6 6 5 3 6 5 5 6 5 7 7 7 6 6 8 9 13 16 15 16
5 5 5 6 6 5 5 5 3 4 3 5 8 7 7 7 7 4 6 6 6 6 5 4 3 3 4 8 5 4 4 3 6 7 8 3 3 2 2 3 3 2 3 4 4 4 7 6 6 6 7 8 5 3 4 7 10 9 5 5 4 4 5 5 5 5 5 3 4 8 6 3 5 4 6 6 5 4 6 8 9 10 13 13 16
6 5 6 7 6 6 5 5 7 6 3 4 9 8 7 7 6 4 6 7 7 6 6 5 4 4 4 5 7 5 5 3 4 5 7 4 3 2 3 4 3 3 2 3 3 4 5 5 6 5 6 6 5 6 8 13 15 11 8 7 6 5 5 4 5 4 4 5 9 10 4 3 5 7 7 6 4 4 4 8 8 8 8 9 10
Wind_Direction
142 145 132 120 115 101 97 69 56 48 359 359 30 341 336 336 309 289 294 302 301 287 285 287 283 267 249 208 192 174 170 156 156 170 179 187 206 210 202 205 205 209 217 216 218 223 228 233 238 242 242 247 258 260 263 264 272 286 291 298 304 308 309 311 314 316 316 315 317 318 319 319 317 317 316 310 305 307 310 316 317 323 342 353 348
146 149 135 128 114 109 92 34 51 24 21 324 311 307 289 305 273 271 297 298 293 283 283 281 277 268 254 197 186 181 171 159 167 177 190 191 209 223 210 208 210 213 218 223 232 235 239 242 251 258 261 262 262 265 272 275 282 288 297 300 305 308 309 311 312 313 314 315 318 319 320 320 319 318 314 311 310 316 326 339 353 357 356 344 339
148 156 140 127 116 116 82 39 24 301 278 268 287 273 255 245 256 287 292 282 271 276 278 277 274 268 241 177 178 159 163 158 162 174 191 199 205 219 222 211 214 217 221 226 232 240 245 252 256 260 260 262 266 271 274 280 284 289 295 300 306 309 311 310 311 313 314 315 319 321 321 319 316 313 310 313 326 337 342 343 341 346 340 332 319
153 161 149 132 126 144 179 147 264 285 247 249 265 264 260 269 265 257 255 255 276 274 258 252 264 255 239 176 148 161 161 166 175 180 196 196 205 217 221 218 216 219 224 229 233 238 245 249 253 257 262 266 269 271 274 277 283 290 297 303 305 308 309 309 309 311 313 316 318 322 321 319 318 319 324 332 328 335 340 326 324 335 338 320 308
166 162 154 138 138 153 205 182 220 255 247 244 274 306 304 296 278 259 265 269 271 269 257 236 245 247 210 226 142 165 165 171 180 182 197 197 206 216 217 218 220 221 224 230 236 240 246 251 255 259 264 269 274 279 283 286 289 292 297 300 303 306 308 309 310 312 314 318 320 321 322 320 323 327 331 324 324 329 325 322 321 331 326 312 307
157 143 139 140 142 160 176 191 224 256 261 258 291 294 285 290 288 309 292 273 269 267 261 254 242 226 199 202 176 160 172 169 182 192 191 202 203 207 211 218 217 227 229 233 236 243 247 252 257 262 266 270 276 282 287 291 292 294 295 297 299 302 305 308 311 312 315 317 319 318 318 321 325 330 320 321 324 322 318 315 314 318 314 306 306
142 134 141 140 138 146 126 199 240 270 287 301 290 282 283 290 306 317 304 281 261 283 289 250 223 207 205 189 190 172 170 171 179 187 196 203 204 214 206 207 216 227 236 237 246 247 249 253 257 259 263 268 274 280 286 289 289 289 289 291 294 299 301 305 309 311 311 313 313 312 312 322 328 321 317 314 313 310 307 305 307 308 307 304 306
133 143 145 144 144 136 155 175 232 270 274 303 290 286 311 307 290 256 292 306 311 300 288 325 357 290 251 193 184 173 170 162 185 192 195 188 213 213 206 211 206 213 223 230 241 253 254 257 259 262 263 265 268 272 277 282 285 284 282 284 287 292 299 302 306 308 309 307 306 307 310 314 315 311 310 307 303 300 298 296 298 299 299 299 301
135 147 149 147 140 143 167 197 213 227 271 272 296 282 301 309 301 281 233 278 305 303 334 4 350 343 344 122 166 157 164 184 190 189 173 199 209 212 210 217 212 212 218 217 231 240 248 253 258 259 261 263 264 266 268 276 282 282 279 275 276 279 288 296 299 300 300 300 301 303 305 302 298 298 296 295 293 292 289 289 288 290 292 293 295
145 144 144 153 148 162 198 211 218 243 256 315 298 313 308 277 295 302 289 285 286 321 326 345 345 332 339 72 151 163 175 185 189 171 176 200 205 208 210 214 211 215 211 216 224 231 236 243 249 255 258 257 260 258 264 269 276 276 272 270 271 267 268 278 286 288 288 290 294 296 296 289 285 283 281 281 281 279 279 280 279 278 280 281 285
152 148 148 155 154 183 195 227 217 261 317 336 299 295 282 261 249 295 294 256 259 298 312 327 325 330 327 280 100 181 168 170 165 171 188 199 195 206 194 211 211 215 216 220 223 230 240 253 267 271 267 264 259 257 258 264 268 268 266 264 261 261 263 264 264 269 278 281 283 287 289 285 279 276 275 274 274 272 270 270 270 270 269 269 270
159 146 152 162 174 178 197 208 233 234 259 257 258 244 284 359 328 316 323 328 300 272 19 353 342 343 311 293 262 147 161 160 163 182 188 201 204 183 200 202 211 228 217 217 219 227 233 242 239 244 253 269 263 252 250 257 265 262 259 253 251 254 258 260 259 255 257 268 273 278 281 281 278 273 271 272 272 270 267 264 264 265 264 263 262
147 153 173 175 182 191 190 219 221 220 208 192 206 266 155 222 288 291 332 342 316 329 64 137 102 9 356 6 324 10 26 134 175 180 201 217 199 186 204 190 209 217 225 211 213 223 230 231 234 234 241 246 266 258 240 242 252 254 251 250 246 246 251 258 261 260 256 254 262 267 268 271 274 274 270 268 267 269 268 264 262 260 259 258 257
153 178 180 176 187 198 202 200 191 181 182 187 224 57 17 336 352 360 284 357 309 292 320 80 48 160 125 332 343 331 325 61 195 214 217 232 232 211 199 202 202 222 225 214 217 222 227 225 223 228 231 235 242 246 241 242 248 248 247 248 246 243 247 251 255 262 265 264 261 262 264 263 264 268 268 267 268 267 268 268 265 260 258 259 257
161 181 177 184 183 180 181 164 154 158 104 82 12 354 328 347 34 43 338 331 266 276 254 165 140 153 118 82 323 19 324 356 328 279 217 209 204 240 227 218 224 214 206 205 217 222 227 217 216 220 217 219 229 231 231 237 237 245 249 248 249 248 247 248 250 256 263 268 270 268 267 266 266 266 265 267 269 271 273 273 273 271 270 266 256
174 179 167 170 174 172 166 147 155 138 142 125 337 321 326 353 12 16 47 341 351 316 9 210 175 115 73 155 212 122 354 299 266 283 234 198 185 225 216 226 228 231 188 205 210 213 219 213 216 217 212 213 218 223 229 233 241 245 249 248 248 250 252 250 249 252 258 265 271 272 272 271 270 270 269 270 272 274 276 278 278 278 277 276 270
170 165 155 162 171 172 156 140 130 128 121 140 268 286 292 293 316 358 27 302 323 323 306 345 28 155 137 90 21 25 223 248 311 286 242 182 216 205 209 217 215 213 200 226 231 221 218 210 230 206 222 219 217 224 229 236 243 246 251 251 248 248 249 249 249 252 255 260 266 270 273 274 274 274 273 273 273 277 279 280 281 281 280 280 280
162 160 155 157 166 164 139 125 130 159 196 229 273 338 317 313 294 188 351 322 247 351 335 314 29 298 113 165 163 177 206 242 101 242 322 262 212 194 200 209 209 232 223 215 223 234 230 235 232 218 226 219 220 226 229 233 235 242 247 252 249 246 246 248 248 252 256 258 263 268 272 274 276 278 277 277 277 281 283 284 284 283 282 283 281
167 165 157 151 145 141 133 137 148 182 253 286 328 275 282 287 314 42 289 294 8 19 9 301 335 354 33 337 259 229 168 124 205 73 188 330 359 191 226 233 212 244 225 221 226 241 257 235 234 232 229 222 219 228 234 236 237 236 239 246 250 248 249 248 248 251 255 259 262 266 270 274 277 280 281 281 282 284 285 285 284 283 283 283 284
154 169 166 153 144 147 139 145 164 221 233 249 249 279 294 289 313 311 293 294 303 3 317 352 73 316 337 7 28 35 349 59 114 160 156 137 222 321 289 205 277 259 240 212 211 219 237 246 244 250 249 247 234 234 235 238 239 243 246 248 249 250 252 253 251 252 255 259 264 266 269 274 278 281 281 281 283 286 285 284 283 283 284 285 287
154 171 189 172 183 175 161 169 195 222 229 240 262 270 250 287 311 328 331 333 340 313 93 16 44 360 359 354 356 12 342 57 72 77 115 110 132 158 218 350 304 273 275 298 292 267 243 223 224 242 245 251 249 244 244 243 238 234 245 249 251 251 252 254 254 254 257 261 263 268 271 276 280 282 282 283 285 287 286 283 281 280 284 287 291
179 192 188 194 198 192 182 197 212 221 237 240 258 270 282 286 280 278 304 335 327 351 45 18 38 358 88 65 30 337 359 5 13 45 58 89 155 180 149 164 225 269 306 242 221 228 231 236 231 242 249 253 256 257 263 260 254 247 246 249 253 254 255 257 258 258 260 263 267 269 270 275 280 282 282 283 285 286 285 283 283 284 285 289 293
184 203 201 195 202 203 200 212 219 226 236 225 239 239 256 265 281 299 305 350 326 350 9 8 19 23 31 50 59 50 281 284 295 355 110 101 56 14 343 207 219 287 258 267 273 257 231 208 224 235 242 250 249 264 263 258 259 257 261 267 266 265 265 265 265 265 265 266 268 269 269 271 275 278 281 283 287 288 288 286 285 286 286 290 292
197 196 210 206 199 215 217 208 220 225 228 219 229 225 242 246 269 263 294 321 337 8 15 359 356 351 9 12 31 6 86 254 239 160 124 132 122 163 215 299 333 252 270 303 313 309 239 214 212 216 231 239 254 257 263 265 273 281 288 280 276 276 276 276 274 272 272 272 272 272 271 270 270 273 279 282 278 282 288 288 287 285 287 289 293
206 198 209 203 198 215 214 209 224 227 228 218 239 222 223 212 219 237 268 303 310 334 351 335 335 326 317 319 44 355 18 357 141 129 78 117 119 123 238 135 130 315 303 39 31 296 6 357 334 336 343 341 309 270 276 314 300 291 296 298 302 301 294 287 285 283 278 278 278 275 271 267 265 267 273 280 285 286 290 289 291 285 282 289 295
197 206 201 200 202 210 209 210 216 223 219 219 225 225 201 200 204 203 247 264 293 292 306 320 319 321 15 333 56 344 19 22 86 98 117 82 66 94 8 344 62 356 300 359 307 36 326 356 311 190 167 267 293 321 325 295 297 305 305 303 303 301 299 293 290 287 286 286 284 282 275 269 267 268 274 282 287 288 289 291 293 294 295 297 299
203 208 203 201 206 204 212 208 214 219 216 220 221 209 215 212 219 217 263 275 278 296 310 349 331 337 337 344 341 349 354 9 45 100 128 126 144 167 118 40 347 15 2 330 347 68 252 284 300 13 6 348 315 298 294 296 304 311 318 312 299 300 298 292 292 297 307 306 301 296 289 277 271 273 279 286 290 290 287 292 296 300 302 302 301
208 200 207 202 205 204 207 215 212 213 216 214 210 197 207 194 208 217 241 252 250 281 274 334 311 324 331 333 347 334 339 25 3 315 125 145 132 125 108 111 111 346 344 352 347 310 292 21 318 207 36 349 307 277 294 317 321 323 324 314 301 298 294 293 305 316 318 315 317 316 305 287 279 281 285 288 291 292 289 289 293 299 303 303 302
207 205 204 204 207 200 203 210 211 206 209 212 196 200 201 205 197 216 246 269 254 255 265 290 293 322 331 316 311 290 319 67 12 20 358 336 120 141 149 144 158 119 283 331 283 264 300 297 24 293 336 336 331 321 328 317 311 319 319 308 300 292 288 305 320 311 317 326 328 333 333 316 302 299 298 296 295 296 296 297 299 300 304 303 300
205 205 201 206 207 206 200 206 207 202 200 204 189 200 200 218 218 217 240 257 262 267 269 280 298 330 343 328 342 345 352 34 29 3 346 350 345 108 143 130 142 155 178 198 274 224 260 305 214 263 314 316 314 319 314 305 302 315 314 309 297 291 315 317 304 311 326 334 329 334 343 340 327 318 312 309 309 310 305 300 300 303 302 304 300
207 205 201 204 205 207 195 205 200 204 205 207 202 206 201 217 224 234 243 224 206 229 264 280 289 347 323 305 316 312 354 4 19 351 17 27 345 13 11 122 182 157 168 154 222 286 188 259 286 252 268 296 306 309 308 303 301 311 312 307 303 315 321 316 320 319 326 330 333 348 358 352 343 335 331 327 324 319 311 306 304 304 303 303 299
212 202 194 199 199 200 193 198 200 204 204 215 203 208 201 218 218 225 247 212 212 226 250 276 295 343 340 331 307 279 324 43 359 355 338 340 348 339 315 253 258 112 134 143 179 262 258 224 261 291 291 274 296 302 307 310 310 313 307 310 311 317 315 317 320 324 335 336 352 0 358 349 348 346 343 338 328 320 316 312 308 306 306 306 306
200 194 188 185 188 192 188 196 197 199 204 212 212 194 202 220 227 227 242 215 217 238 244 273 297 312 306 297 301 293 8 3 306 311 319 312 340 253 251 229 216 180 159 171 207 264 302 255 250 258 289 304 307 285 311 311 316 316 319 310 313 312 311 323 323 322 325 327 349 345 345 345 353 354 352 346 335 326 319 316 313 311 311 311 310
187 188 192 189 183 184 183 194 197 201 203 210 212 191 202 211 230 219 240 216 212 224 215 246 278 277 248 297 312 301 286 272 284 297 292 300 309 326 318 308 219 223 190 161 207 204 269 320 317 307 289 281 297 294 298 309 309 314 313 313 318 321 326 340 331 319 320 335 338 336 341 346 1 3 354 342 335 330 325 322 320 320 320 320 317
199 188 192 193 189 193 196 190 193 199 207 205 206 197 204 207 215 226 224 210 200 207 208 230 247 260 274 260 266 271 274 273 280 275 279 278 259 262 283 286 236 285 179 172 136 215 245 266 250 285 284 315 279 293 312 305 296 296 299 315 333 332 346 341 340 331 342 345 337 340 341 346 359 356 347 340 335 332 330 330 330 334 337 333 328
196 199 190 190 188 195 205 207 201 205 208 208 201 200 201 204 207 222 226 218 220 221 219 230 245 245 243 253 262 253 254 255 265 271 278 271 253 211 234 263 217 255 275 155 184 183 208 243 292 269 278 317 297 297 302 311 312 316 324 311 330 354 350 352 349 344 334 333 333 333 337 346 353 349 340 336 334 332 332 335 340 348 350 348 342
196 193 194 186 189 197 207 211 211 211 211 208 203 203 205 201 206 214 217 211 215 219 221 225 231 234 241 232 248 253 246 243 257 250 263 274 267 235 219 211 206 197 183 185 201 180 153 284 287 276 287 294 266 298 325 344 327 335 337 358 339 350 345 344 346 338 329 328 325 329 338 347 344 342 336 334 334 332 334 339 348 360 1 354 348
197 196 197 193 189 201 208 212 209 208 208 206 198 195 196 200 205 212 215 209 211 216 221 220 227 221 227 232 246 248 243 227 245 279 293 272 264 221 235 257 207 114 141 246 88 86 49 260 244 302 336 310 326 301 298 3 344 333 353 345 353 2 358 348 340 328 325 326 331 339 344 341 339 338 335 334 334 335 338 343 355 9 0 353 348
185 196 205 200 198 196 204 200 196 194 196 195 196 205 202 195 201 209 212 213 209 207 206 208 208 207 219 229 235 231 235 223 215 230 235 266 266 253 231 220 210 167 192 205 46 34 40 360 307 258 280 279 247 300 311 360 7 109 4 337 338 323 337 343 327 322 319 321 327 335 338 332 332 335 333 332 334 338 343 345 0 7 356 353 353
188 185 194 198 199 195 194 193 190 185 186 193 200 206 213 207 201 211 207 201 201 202 201 204 209 223 227 225 225 225 225 214 214 227 202 223 237 224 244 220 182 165 192 212 62 62 13 339 252 288 291 281 326 293 300 348 13 348 29 34 318 327 333 321 294 308 308 329 336 344 340 340 342 339 341 335 334 340 346 344 353 360 352 352 352
192 191 188 189 188 195 192 192 192 188 188 196 197 202 215 214 195 201 203 198 191 195 212 228 233 231 237 242 251 259 229 216 211 211 203 199 198 231 249 211 169 156 135 100 125 157 275 275 296 292 309 317 300 328 331 340 354 289 276 341 307 310 308 319 313 287 286 335 335 340 338 342 340 344 339 337 332 343 343 343 347 351 347 347 349
197 202 186 186 185 189 189 191 189 190 197 194 193 206 201 197 193 190 190 200 201 201 214 235 246 241 241 246 260 273 274 269 240 222 221 224 221 206 220 187 163 163 173 180 204 207 222 272 273 287 313 299 296 303 289 271 265 307 347 355 343 315 327 322 298 287 322 2 341 339 328 336 347 338 342 336 332 341 337 340 342 341 339 341 347
193 197 191 188 191 187 189 186 187 177 141 81 69 70 72 283 191 182 183 204 210 207 215 215 234 256 297 265 137 51 56 42 27 31 80 164 153 138 157 172 177 168 171 182 222 198 202 232 249 281 274 283 288 287 280 283 309 334 301 311 306 329 344 341 330 320 315 20 336 335 328 334 357 344 334 334 336 337 334 334 331 341 342 341 345
201 196 196 195 194 192 177 173 181 156 157 114 111 111 123 137 156 178 186 186 138 322 274 245 256 249 234 166 103 62 58 67 48 27 38 71 113 139 145 171 207 220 194 177 201 201 194 223 265 254 246 266 276 297 286 330 309 320 309 317 299 325 330 329 312 312 299 18 349 350 323 326 353 343 335 337 336 333 330 326 336 343 345 347 353
166 187 200 183 166 151 140 150 156 148 145 127 134 143 151 149 173 163 102 104 136 211 256 248 232 182 130 107 73 30 22 34 35 24 25 16 36 85 136 171 229 228 246 273 281 226 163 175 217 262 232 246 288 280 271 292 279 291 314 335 336 331 302 300 290 296 317 357 3 348 323 327 351 344 334 332 335 331 330 339 343 344 346 350 354
161 166 160 156 153 154 155 152 147 143 146 147 206 207 193 179 173 154 136 146 150 188 188 145 140 118 117 121 109 65 24 30 19 7 2 18 11 25 30 33 45 73 75 73 71 68 146 177 173 212 259 197 246 253 303 347 327 316 332 307 320 320 319 296 295 301 309 6 16 319 320 336 350 341 337 329 333 329 330 338 346 351 352 352 353
157 157 151 148 154 151 146 145 146 137 116 25 291 255 235 215 189 151 114 199 147 126 111 99 99 105 102 104 103 101 55 39 30 351 359 358 16 42 41 39 53 63 62 53 41 41 48 222 182 226 265 264 248 286 311 326 277 276 248 249 265 273 291 295 304 307 323 11 17 28 351 321 339 344 332 327 330 326 332 340 356 356 355 353 352
94 113 98 105 121 124 128 136 132 119 80 22 352 320 286 252 215 173 157 156 140 132 118 109 105 106 111 109 111 99 79 62 19 354 335 281 67 66 42 35 59 60 43 21 328 342 346 326 317 305 306 335 346 276 312 324 342 344 342 0 355 354 357 5 1 346 346 352 29 26 345 323 337 344 323 322 327 328 335 348 355 354 351 349 352
108 92 102 89 89 97 93 86 102 95 73 14 1 341 314 286 250 187 145 139 134 127 118 113 110 110 108 120 118 119 89 51 8 351 342 28 98 89 92 65 89 80 10 339 317 323 340 339 327 346 3 154 126 51 7 346 348 341 353 15 11 356 13 10 354 2 344 333 1 15 339 314 339 343 327 324 325 319 334 355 350 347 345 346 349
123 120 111 93 68 67 75 79 81 92 82 25 17 356 337 302 267 192 152 141 136 129 119 94 94 103 124 118 107 92 92 52 359 354 354 31 90 98 107 113 94 53 4 339 337 344 346 344 17 64 96 95 81 49 16 9 16 21 27 22 342 20 22 18 359 334 314 340 19 359 337 329 318 353 340 313 313 316 350 351 346 341 344 347 346
128 125 112 103 93 72 70 80 86 90 84 33 23 14 2 338 295 204 159 149 143 142 134 115 84 78 70 90 97 97 106 86 22 17 12 29 80 63 104 104 100 74 335 325 335 348 354 10 25 54 57 53 44 37 29 36 45 40 36 33 17 34 29 13 358 335 350 11 0 347 336 316 339 24 357 343 340 299 354 340 341 338 343 347 346